Timestamp,Temp,Chill,HIndex,Humid,Dewpt,Wind,HiWind,WindDir,Rain,RainRate,Barom,Solar,ET,UV,InsideTemp,InsideHumid
2021-02-10 00:00:00,31.1208053691275,28.3136271663466,31.1208053691275,74.496644295302,23.9777051719021,3.85234899328859,8,31.3902607860445,0,0,29.6333959731543,0,0.0000274847889172753,0,71.6000000000002,26
2021-02-10 00:05:00,31.1,29.2905735244164,31.1,75,24.1187485729098,3.31788079470199,8,29.4179422258413,0,0,29.6333907284767,0,0.0000270055550305874,0,71.6000000000002,26
2021-02-10 00:10:00,31.1,29.0165073335392,31.1,75,24.1187485729098,3.52380952380952,10,19.9876046362219,0,0,29.6341768707484,0,0.0000270675993643335,0,71.6000000000002,26
2021-02-10 00:15:00,31.1,26.2182378104482,31.1,75.2450331125828,24.196278941746,5.27152317880795,10,28.2089955619209,0,0,29.635582781457,0,0.0000278966477958516,0,71.6000000000002,26
2021-02-10 00:20:00,31.0442953020134,27.0151088772756,31.0442953020134,76,24.3811769255408,4.83221476510067,9,18.1879124014435,0,0,29.6371879194631,0,0.0000304821105723267,0,71.7597315436241,26
2021-02-10 00:25:00,31.003355704698,26.9668211573312,31.003355704698,76.3691275167785,24.4568927958988,4.87248322147651,10,22.134400946446,0,0,29.6370134228189,0,0.0000324229470157985,0,71.7999999999999,25.4026845637584
2021-02-10 00:30:00,31,28.4894422500239,31,77,24.6508486765138,3.73154362416107,10,8.64085120239244,0,0,29.6373624161074,0,0.0000340570047369654,0,71.6013422818794,25
2021-02-10 00:35:00,31,28.4418954860279,31,77,24.6508486765138,3.6510067114094,10,13.7293137653463,0,0,29.639577181208,0,0.0000349456130749893,0,71.6000000000002,25
2021-02-10 00:40:00,31,29.6277790715665,31,77.6375838926175,24.84787355786,2.96644295302013,10,6.28386291201332,0,0,29.642798657718,0,0.0000342949077993826,0,71.6000000000002,25
2021-02-10 00:45:00,31,27.0710789422453,31,78,24.9598666483094,4.63758389261745,9,18.1693222821356,0,0,29.6433758389261,0,0.0000321268663698896,0,71.4805369127514,25
2021-02-10 00:50:00,31.0711409395973,27.9064173024253,31.0711409395973,78,25.0290082929862,4.18791946308725,10,18.586201787461,0,0,29.6430134228188,0,0.0000321423730265664,0,71.3999999999998,25
2021-02-10 00:55:00,31.1,27.7501735224581,31.1,78,25.057056318657,4.35374149659864,10,21.7822301680087,0,0,29.6435986394557,0,0.0000328700474132838,0,71.3999999999998,25
2021-02-10 01:00:00,31.1,28.3468685324732,31.1,78.36,25.1670969340121,3.96,9,11.2550591261199,0,0,29.6432133333333,0,0.0000327911847929132,0,71.3999999999998,25
2021-02-10 01:05:00,31.1,27.8044601191146,31.1,79,25.3627246946435,4.36734693877551,9,23.1730171261257,0,0,29.6431904761905,0,0.0000329900432570199,0,71.3999999999998,25
2021-02-10 01:10:00,31.1,28.2989463210558,31.1,79,25.3627246946435,3.85234899328859,9,15.5183869619878,0,0,29.6432013422819,0,0.0000327930418920343,0,71.3999999999998,25
2021-02-10 01:15:00,31.1,28.8462192035005,31.1,78.3774834437086,25.1724410698572,3.40397350993377,8,6.66593748887615,0,0,29.6443841059603,0,0.0000307665795491153,0,71.4384105960264,25
2021-02-10 01:20:00,31.0133333333333,30.3204188372843,31.0133333333333,78,24.9728252710224,2.35333333333333,8,0.495956497585013,0,0,29.6456000000001,0,0.0000291411275348362,0,71.6000000000002,25
2021-02-10 01:25:00,30.9322147651007,30.7675908478702,30.9322147651007,78,24.8939859651868,2.08053691275168,7,343.985911942114,0,0,29.6451879194631,0,0.000026285081164207,0,71.6000000000002,25
2021-02-10 01:30:00,30.7906040268457,29.163219615774,30.7906040268457,78,24.7563532516189,2.9261744966443,8,358.737162502277,0,0,29.6454026845638,0,0.0000247746622886618,0,71.6000000000002,25
2021-02-10 01:35:00,30.6852348993288,27.6894776547324,30.6852348993288,77.1275167785235,24.3847246397997,3.8993288590604,8,5.01627894002787,0,0,29.6464161073825,0,0.0000234722542483311,0,71.6000000000002,25
2021-02-10 01:40:00,30.596644295302,27.9491058359578,30.596644295302,76.496644295302,24.102345887187,3.63087248322148,8,11.5763999143529,0,0,29.6459798657718,0,0.000024761640937541,0,71.6000000000002,25
2021-02-10 01:45:00,30.5053691275168,29.4223911516458,30.5053691275168,76,23.8589323523735,2.7248322147651,7,8.46741947879562,0,0,29.646812080537,0,0.0000244087179359582,0,71.6000000000002,25
2021-02-10 01:50:00,30.3966442953021,27.5520576995678,30.3966442953021,76,23.7535703219653,3.93959731543624,7,20.5586048865956,0,0,29.6460000000001,0,0.0000234675936770277,0,71.6000000000002,25
2021-02-10 01:55:00,30.2993288590605,27.4099728888285,30.2993288590605,75.2281879194631,23.4159576786341,3.96644295302013,8,14.3534106076448,0,0,29.6458255033557,0,0.0000230429538107078,0,71.6000000000002,25
2021-02-10 02:00:00,30.2079999999999,28.145661277677,30.2079999999999,75,23.2556508671576,3.10666666666667,8,12.7452512414371,0,0,29.6436,0,0.0000237165721103331,0,71.6000000000002,25
2021-02-10 02:05:00,30.0939597315436,27.442096759471,30.0939597315436,74.2751677852349,22.9143090600494,3.79865771812081,9,14.2570810943745,0,0,29.6449798657718,0,0.0000226643132991173,0,71.6000000000002,25
2021-02-10 02:10:00,29.9892617449664,28.1057922445777,29.9892617449664,74,22.7254577972541,2.96644295302013,9,18.7344086665382,0,0,29.6458053691275,0,0.0000237405780528668,0,71.6000000000002,25
2021-02-10 02:15:00,29.9,28.0692742281342,29.9,73.3288590604027,22.4229461441589,3.21476510067114,8,13.3715951644545,0,0,29.6462080536913,0,0.0000237839774517069,0,71.4805369127514,25
2021-02-10 02:20:00,29.8053333333334,28.1048461419437,29.8053333333334,73,22.2256494374189,3.02666666666667,7,15.3545059940304,0,0,29.64676,0,0.0000251922735867914,0,71.3999999999998,25
2021-02-10 02:25:00,29.7145695364238,27.9603472094743,29.7145695364238,73,22.1380889608973,3.19205298013245,8,24.4458845104234,0,0,29.6474304635761,0,0.0000263545835068316,0,71.3999999999998,25
2021-02-10 02:30:00,29.6999999999999,26.6163254655309,29.6999999999999,72.4026845637584,21.9293814389272,4.01342281879195,10,26.7465321149939,0,0,29.6466107382551,0,0.0000272971640860195,0,71.3999999999998,25
2021-02-10 02:35:00,29.6999999999999,27.3452101181089,29.6999999999999,72,21.7981552563832,3.55102040816327,11,12.5872065144813,0,0,29.645387755102,0,0.0000284453730460754,0,71.2380952380953,25
2021-02-10 02:40:00,29.6999999999999,26.9061736491645,29.6999999999999,72,21.7981552563832,3.7248322147651,11,22.4455816481481,0,0,29.645,0,0.0000291031197317995,0,71.2000000000001,25
2021-02-10 02:45:00,29.7577181208055,26.4242969093528,29.7577181208055,71.993288590604,21.8515343671379,4.12080536912752,10,21.6131825920916,0,0,29.6457919463088,0,0.0000300984357700961,0,71.2000000000001,25
2021-02-10 02:50:00,29.8040268456377,27.7699596768183,29.8040268456377,71,21.5682782747488,3.26174496644295,10,33.522882896057,0,0,29.6467919463088,0,0.0000309247542930215,0,71.2000000000001,25
2021-02-10 02:55:00,29.8000000000001,28.9018414997895,29.8000000000001,71,21.5644057607023,2.57718120805369,7,20.194100114789,0,0,29.6476040268457,0,0.0000312159458017723,0,71.2000000000001,25
2021-02-10 03:00:00,29.7255033557046,27.2850141905018,29.7255033557046,71,21.492763599565,3.26174496644295,8,24.6072845815513,0,0,29.6479865771813,0,0.0000312056109897073,0,71.2000000000001,25
2021-02-10 03:05:00,29.6999999999999,27.8942927071505,29.6999999999999,71,21.4682374543107,3.31543624161074,9,33.8188852113819,0,0,29.6472147651006,0,0.0000307929804917022,0,71.2000000000001,25
2021-02-10 03:10:00,29.6999999999999,27.5752671717805,29.6999999999999,71,21.4682374543107,3.22,9,25.3913685294899,0,0,29.6479733333333,0,0.0000317128553014543,0,71.2000000000001,25
2021-02-10 03:15:00,29.6999999999999,27.6690615084397,29.6999999999999,71,21.4682374543107,3.40939597315436,7,11.4821985879136,0,0,29.6484093959732,0,0.0000319540107208495,0,71.2000000000001,25
2021-02-10 03:20:00,29.6999999999999,28.053369671219,29.6999999999999,71,21.4682374543107,3.17333333333333,7,51.8795316015021,0,0,29.6476000000001,0,0.0000323821875023026,0,71.2386666666665,25
2021-02-10 03:25:00,29.6999999999999,28.4119558498592,29.6999999999999,71,21.4682374543107,2.7891156462585,8,40.0976609834215,0,0,29.6478095238095,0,0.0000328800095872904,0,71.3999999999998,25
2021-02-10 03:30:00,29.6999999999999,28.2118669110787,29.6999999999999,71,21.4682374543107,2.80536912751678,8,24.5053944605498,0,0,29.6489664429529,0,0.0000318277920493407,0,71.3999999999998,25
2021-02-10 03:35:00,29.6999999999999,27.9235963426254,29.6999999999999,71,21.4682374543107,3.03973509933775,7,32.7771878339867,0,0,29.6511986754966,0,0.000030962940141141,0,71.5178807947022,25
2021-02-10 03:40:00,29.6966442953019,29.0037758212139,29.6966442953019,71,21.4650103005979,2.39597315436242,7,33.5211434356876,0,0,29.6498053691275,0,0.0000301663366574664,0,71.6000000000002,25
2021-02-10 03:45:00,29.6127516778523,28.1025786706091,29.6127516778523,71,21.3843314577787,2.97986577181208,6,25.0080395327181,0,0,29.6503691275168,0,0.0000288946902334235,0,71.6000000000002,25
2021-02-10 03:50:00,29.6,28.4539164502375,29.6,70.9731543624161,21.3631041979039,2.60402684563758,8,18.764670297054,0,0,29.6519865771812,0,0.0000285131942066084,0,71.6000000000002,25
2021-02-10 03:55:00,29.6033557046979,27.6249024899601,29.6033557046979,70,21.0413784411656,3.32214765100671,8,30.367704444514,0,0,29.6532080536912,0,0.0000285306949588749,0,71.6000000000002,25
2021-02-10 04:00:00,29.6859060402684,28.3895217630733,29.6859060402684,70,21.120639389943,2.74496644295302,7,23.3258437565208,0,0,29.6545704697987,0,0.0000293572112863724,0,71.6000000000002,25
2021-02-10 04:05:00,29.6999999999999,28.7036838174804,29.6999999999999,70,21.1341717470514,2.61744966442953,6,31.4213437416758,0,0,29.6566107382551,0,0.000028646551789204,0,71.4402684563756,25
2021-02-10 04:10:00,29.7,29.7,29.7,70,21.1341717470514,2.875,5,52.4782603187485,0,0,29.65575,0,0.0000278900023118179,0,71.4,25
2021-02-10 04:20:00,29.7,27.9347454856847,29.7,69.5161290322581,20.9704653340197,3.24193548387097,6,21.1574352776624,0,0,29.662935483871,0,0.0000267607796061112,0,71.4,25
2021-02-10 04:25:00,29.6999999999999,27.1737697309827,29.6999999999999,69.6375838926175,21.0115567423915,3.6510067114094,9,20.4631899268101,0,0,29.662610738255,0,0.0000277590160134916,0,71.2805369127518,25
2021-02-10 04:30:00,29.7393333333334,26.6092527852525,29.7393333333334,69,20.8335495549414,4.09333333333333,10,18.8892725515083,0,0,29.663,0,0.0000289393118441789,0,71.2000000000001,25
2021-02-10 04:35:00,29.8000000000001,29.0026612048638,29.8000000000001,69,20.8917037910231,2.18791946308725,10,32.8118953692215,0,0,29.6641744966443,0,0.0000308183520681079,0,71.2000000000001,25
2021-02-10 04:40:00,29.8000000000001,29.3678368146453,29.8000000000001,69,20.8917037910231,1.89864864864865,6,40.247098243522,0,0,29.6661891891892,0,0.0000305604141550414,0,71.2000000000001,25
2021-02-10 04:45:00,29.7311258278145,28.9466826615562,29.7311258278145,69,20.8256819525198,2.52317880794702,7,13.6670496089205,0,0,29.6687218543046,0,0.0000290737695862113,0,71.1410596026492,25
2021-02-10 04:50:00,29.6999999999999,27.8547166113979,29.6999999999999,69,20.7958451601192,3.16778523489933,7,21.9332650961571,0,0,29.6718053691275,0,0.0000297025940779933,0,71.1000000000002,25
2021-02-10 04:55:00,29.6697986577181,28.9661740550761,29.6697986577181,69,20.7668942822107,2.38926174496644,7,30.6259955042406,0,0,29.6723892617449,0,0.0000295156357993458,0,71.1000000000002,25
2021-02-10 05:00:00,29.6026845637584,28.489275404825,29.6026845637584,69.3557046979866,20.8228469120822,2.87919463087248,7,2.95866402379112,0,0,29.6745906040269,0,0.0000289980769305628,0,71.1000000000002,25
2021-02-10 05:05:00,29.5047619047619,28.5974134901711,29.5047619047619,70,20.9467124105343,2.53741496598639,6,0.33554303960733,0,0,29.674612244898,0,0.0000293470475159302,0,71.1993197278912,25
2021-02-10 05:10:00,29.4080536912752,28.8935309483918,29.4080536912752,70,20.8538560569547,2.42281879194631,5,12.4757113011229,0,0,29.675577181208,0,0.0000288230209040819,0,71.2000000000001,25
2021-02-10 05:15:00,29.4,29.3128978264558,29.4,70,20.8461231351622,1.57718120805369,5,13.034040997384,0,0,29.6789530201343,0,0.0000282161364462537,0,71.2000000000001,25
2021-02-10 05:20:00,29.3677852348994,28.9028237689016,29.3677852348994,70,20.8151911553819,2.18120805369128,4,13.0215374376939,0,0,29.681966442953,0,0.0000260015219375435,0,71.2000000000001,25
2021-02-10 05:25:00,29.3000000000001,29.2424954867507,29.3000000000001,70.9072847682119,21.0526395576474,1.47682119205298,4,11.7443703578954,0,0,29.6841854304636,0,0.0000239961283693389,0,71.2000000000001,25
2021-02-10 05:30:00,29.2456375838925,27.9559978616483,29.2456375838925,71,21.0312736948711,2.71140939597315,5,8.37232046095863,0,0,29.6843825503356,0,0.0000197658901424929,0,71.3986577181206,25
2021-02-10 05:35:00,29.1999999999999,28.3448870937355,29.1999999999999,71,20.9873828083784,2.50335570469799,5,8.74674281912924,0,0,29.6861677852349,0,0.0000204241469154921,0,71.3999999999998,25
2021-02-10 05:40:00,29.1999999999999,28.3285786237412,29.1999999999999,71,20.9873828083784,2.80666666666667,5,13.7967303014321,0,0,29.688,0,0.0000212236922948623,0,71.3999999999998,25
2021-02-10 05:45:00,29.2033557046979,28.7939631118247,29.2033557046979,71,20.990610079444,2.20134228187919,4,14.4377567458163,0,0,29.6886040268456,0,0.0000216015276160741,0,71.5597315436244,25
2021-02-10 05:50:00,29.2100671140939,27.9511848603253,29.2100671140939,71,20.9970646215753,2.3758389261745,7,18.7987094259691,0,0,29.6887785234899,0,0.0000202608081977236,0,71.6000000000002,25
2021-02-10 05:55:00,29.3000000000001,28.127335732461,29.3000000000001,71,21.0835554861346,2.56375838926175,7,22.551137182034,0,0,29.689,0,0.0000199943497617336,0,71.6000000000002,25
2021-02-10 06:00:00,29.3087248322148,28.0662496970388,29.3087248322148,71,21.0919463146243,2.88590604026846,7,27.1903168869775,0,0,29.6911677852349,0,0.0000191249381103204,0,71.6000000000002,25
2021-02-10 06:05:00,29.3761904761905,28.4379987392754,29.3761904761905,71,21.1568292411512,2.57823129251701,6,18.541845052913,0,0,29.6920068027211,0,0.0000195710913240617,0,71.6000000000002,25
2021-02-10 06:10:00,29.3389261744967,27.5133126279021,29.3389261744967,71.5234899328859,21.2934082854089,3.06040268456376,6,7.37494659547853,0,0,29.6938053691276,0,0.0000197795964550139,0,71.6000000000002,25
2021-02-10 06:15:00,29.31677852349,28.5535866402782,29.31677852349,72,21.4290268207953,2.24832214765101,6,5.23036428258702,0,0,29.6945771812081,0,0.0000214160767592174,0,71.4805369127514,25
2021-02-10 06:20:00,29.3000000000001,27.269400941081,29.3000000000001,72.1275167785235,21.4543434041247,3.26174496644295,7,23.8009903370319,0,0,29.6961946308724,0,0.0000205842798936364,0,71.3999999999998,25
2021-02-10 06:25:00,29.3000000000001,28.2163491835519,29.3000000000001,72.6644295302013,21.6289888538828,2.76510067114094,7,7.69978419734849,0,0,29.6973691275168,0,0.0000226995042247578,0,71.3999999999998,25
2021-02-10 06:30:00,29.238255033557,27.94781868818,29.238255033557,73,21.6785738929296,2.73825503355705,7,353.084579685642,0,0,29.6989597315436,0,0.0000223914564003265,0,71.3999999999998,25
2021-02-10 06:35:00,29.1751677852349,26.343616658971,29.1751677852349,73,21.6177103609354,3.78523489932886,8,358.979568537995,0,0,29.7011946308726,0,0.0000224461394597252,0,71.2805369127518,25
2021-02-10 06:40:00,29.0366666666667,25.7462489729404,29.0366666666667,73.0266666666667,21.4926473973269,4.02666666666667,8,340.130561556287,0,0,29.7031866666667,0,0.0000236331614673797,0,71.2000000000001,25
2021-02-10 06:45:00,28.912582781457,27.2513668456256,28.912582781457,74,21.6851509767753,2.98013245033113,7,332.303333563895,0,0,29.7039867549669,0,0.0000257514029270802,0,71.2000000000001,25
2021-02-10 06:50:00,28.8000000000001,27.5876518439999,28.8000000000001,74.1476510067114,21.6231341941714,2.48993288590604,6,323.148578055687,0,0,29.7061543624161,0,0.0000256766117755825,0,71.2000000000001,25
2021-02-10 06:55:00,28.6741496598639,27.5767217713084,28.6741496598639,75,21.7713619982223,2.34013605442177,6,346.103958840628,0,0,29.7085918367347,0,0.0000254437104547092,0,71.2000000000001,25
2021-02-10 07:00:00,28.5389261744966,27.1808975837078,28.5389261744966,75.1006711409396,21.6719719375018,2.81879194630872,6,353.124558379754,0,0,29.7105906040268,0,0.0000241426939234278,0,71.2000000000001,25
2021-02-10 07:05:00,28.4496688741722,25.4967027066447,28.4496688741722,76,21.8666737014605,3.58278145695364,7,348.848010944961,0,0,29.7123642384107,0,0.0000238827387160511,0,71.2000000000001,25
2021-02-10 07:10:00,28.4000000000001,27.9813832193508,28.4000000000001,76.3892617449664,21.9387598890452,1.84563758389262,7,12.2871166663787,0,0,29.7147718120806,0,0.0000233806788086583,0,71.2000000000001,25
2021-02-10 07:15:00,28.3369127516779,26.4379893030163,28.3369127516779,77,22.0661542872755,3.19463087248322,6,4.05313092559274,0,0,29.71677852349,0,0.0000225346207026335,0,71.2000000000001,25
2021-02-10 07:20:00,28.3000000000001,27.4807026107169,28.3000000000001,77.8590604026846,22.292490420027,2.25503355704698,7,358.766727518649,0,0,29.7185771812081,0,0.0000215789884697098,0,71.2000000000001,25
2021-02-10 07:25:00,28.3000000000001,26.087185786953,28.3000000000001,78,22.3355019606478,3.28859060402685,8,9.1327822633703,0,0,29.720577181208,0,0.0000201208874770868,0,71.359731543624,25
2021-02-10 07:30:00,28.2503355704698,27.0719177059876,28.2503355704698,78.9731543624161,22.5807815423443,2.75838926174497,8,348.960367387024,0,0,29.7237583892618,0,0.0000205620057347374,0,71.3999999999998,25
2021-02-10 07:35:00,28.1999999999999,26.6522050933892,28.1999999999999,79,22.5398809144595,2.81208053691275,7,349.618520436626,0,0,29.7265637583892,0.134228187919463,0.0000187113458993984,0,71.3999999999998,25
2021-02-10 07:40:00,28.1926174496644,27.1625822882083,28.1926174496644,79.5838926174497,22.7068124523344,2.48993288590604,7,343.784271121702,0,0,29.7301744966444,5,0.00000254399868463424,0,71.3999999999998,25
2021-02-10 07:45:00,28.1033557046979,25.44011783057,28.1033557046979,80,22.7438851074774,3.60402684563758,9,336.182904433412,0,0,29.7327651006711,7.64429530201342,0.0000019308262526472,0,71.3999999999998,25
2021-02-10 07:50:00,28.0818791946308,24.4023033734907,28.0818791946308,80.1677852348993,22.7723920328364,4.06711409395973,9,329.77555322319,0,0,29.7342080536913,9.9261744966443,0.00000291191159641896,0,71.3999999999998,25
2021-02-10 07:55:00,28,24.2393927575406,28,80.6938775510204,22.8475825153667,4.18367346938776,8,329.303423917125,0,0,29.7355714285714,11.4489795918367,0.00000535433354471016,0,71.3999999999998,25
2021-02-10 08:00:00,28,23.9890296584342,28,81,22.9377840528719,4.36241610738255,8,317.890942594644,0,0,29.738577181208,12.8322147651007,0.00000661125342032272,0,71.3999999999998,25
2021-02-10 08:05:00,28.0181208053691,26.095047956907,28.0181208053691,81,22.9554745547747,3.12080536912752,8,309.961131433916,0,0,29.740966442953,15.4630872483221,0.00000790903483635331,0,71.3999999999998,25
2021-02-10 08:10:00,28.0724832214765,26.2473043913176,28.0724832214765,81.4362416107383,23.1357390441447,2.98657718120805,7,321.766562114847,0,0,29.7451409395973,18.1610738255034,0.00000989589112533887,0,71.3999999999998,25
2021-02-10 08:15:00,28.1,26.9934507474691,28.1,81.8344370860927,23.2787198953679,2.64238410596026,6,322.247342809813,0,0,29.7477814569536,23.1920529801325,0.0000102185055022997,0,71.3999999999998,25
2021-02-10 08:20:00,28.1469798657717,26.712269326507,28.1469798657717,82,23.3729236700844,2.93288590604027,5,330.631582056248,0,0,29.7495838926174,34.5637583892617,0,0,71.3999999999998,25
2021-02-10 08:25:00,28.2590604026847,25.5723894220929,28.2590604026847,82,23.4824941767062,3.71812080536913,9,337.672202344789,0,0,29.7509798657719,39.5302013422819,0,0,71.3999999999998,25
2021-02-10 08:30:00,28.4060402684564,25.9550018109461,28.4060402684564,82,23.6261814193278,3.40268456375839,9,332.221952706289,0,0,29.7523825503356,45.4026845637584,0.0000120968601285646,0,71.3999999999998,25
2021-02-10 08:35:00,28.5782312925169,27.3506414756704,28.5782312925169,82.312925170068,23.8850098340461,2.8843537414966,8,330.2620960375,0,0,29.7559727891156,53.6462585034014,0.0000229143307821032,0,71.3999999999998,25
2021-02-10 08:40:00,28.771812080537,26.9825686033677,28.771812080537,83,24.273110119486,3.08724832214765,7,329.197914191757,0,0,29.7593825503356,61.4765100671141,0.000029777463316269,0,71.3999999999998,25
2021-02-10 08:45:00,28.9382550335571,27.0348231716856,28.9382550335571,83,24.436044405653,3.3489932885906,7,323.389056739532,0,0,29.7609865771812,70.4362416107383,0.0000343061234872121,0.0771812080536913,71.3999999999998,25
2021-02-10 08:50:00,29.0919463087248,25.5362692302356,29.0919463087248,83,24.5864944822956,4.22147651006711,9,327.800338633281,0,0,29.7637718120805,87.1208053691275,0.0000382156112401914,0.0100671140939597,71.3999999999998,25
2021-02-10 08:55:00,29.3020134228188,26.3800533895638,29.3020134228188,83,24.7921298082319,3.90604026845638,9,330.000319610228,0,0,29.7659798657718,116.328859060403,0.0000421225759540932,0,71.3999999999998,25
2021-02-10 09:00:00,29.492,26.2570555752212,29.492,83.0133333333333,24.981938140567,4.22,9,356.290322903522,0,0,29.76796,118.173333333333,0.000045696515760537,0.17,71.4386666666666,25
2021-02-10 09:05:00,29.7127516778524,26.2793043864843,29.7127516778524,83.8255033557047,25.431564908985,4.36241610738255,10,337.779518755334,0,0,29.7684093959732,115.161073825503,0.0000507020388278412,0.377852348993289,71.6000000000002,25
2021-02-10 09:10:00,29.8832214765101,26.9667006157056,29.8832214765101,84,25.6488320853662,3.87248322147651,10,329.508715556907,0,0,29.7693825503356,124.758389261745,0.0000558665778232414,0.173154362416108,71.6000000000002,25
2021-02-10 09:15:00,30.0885906040268,27.6575375814344,30.0885906040268,84,25.8501353978346,3.70469798657718,7,313.331918165512,0,0,29.7700000000001,135.060402684564,0.0000619493133721082,0.087248322147651,71.6000000000002,25
2021-02-10 09:20:00,30.2664429530202,27.3971673355473,30.2664429530202,84,26.0244651478974,3.86577181208054,9,328.724781187748,0,0,29.7709932885907,145.58389261745,0.0000685334287524633,0.174496644295302,71.7986577181207,25
2021-02-10 09:25:00,30.494701986755,27.4553881300917,30.494701986755,84,26.2482010328798,3.59602649006623,9,333.534022315278,0,0,29.77140397351,156.635761589404,0.0000752336170050639,0.192052980132451,71.8192052980132,24.0066225165563
2021-02-10 09:30:00,30.7315436241612,27.2177754425625,30.7315436241612,83.7986577181208,26.4221699574514,4.33557046979866,9,325.118657067642,0,0,29.7725838926175,167.630872483221,0.0000821105988628539,0.41006711409396,71.8999999999998,24
2021-02-10 09:35:00,30.9850340136055,27.3317455110126,30.9850340136055,83,26.439565462238,4.43537414965986,9,326.342357369739,0,0,29.7741768707483,179.571428571429,0.0000892691743984519,0.604761904761906,71.8999999999998,24
2021-02-10 09:40:00,31.2013422818792,26.5424230422077,31.2013422818792,83,26.6512902406425,5.02684563758389,9,329.165680736194,0,0,29.7767718120805,188.657718120805,0.0000972876042180823,0.620134228187918,72.0597315436244,24
2021-02-10 09:45:00,31.3825503355705,29.2113288942006,31.3825503355705,83,26.8286567365277,3.57718120805369,9,340.072824480713,0,0,29.7789865771812,198.342281879195,0.000105424991344397,0.574496644295302,72.1000000000002,24
2021-02-10 09:50:00,31.5979865771811,28.2506807888738,31.5979865771811,83,27.0395237109336,4.28859060402685,8,318.000476862439,0,0,29.7807785234899,206.590604026846,0.000113319953871752,0.596644295302014,72.1000000000002,24
2021-02-10 09:55:00,31.8060402684564,29.7025326616076,31.8060402684564,83,27.2431625552827,3.38926174496644,8,322.47084469596,0,0,29.7819798657719,215.187919463087,0.000120834429667002,0.583221476510067,72.1000000000002,24
2021-02-10 10:00:00,31.9778523489933,30.147466141349,31.9778523489933,83,27.4113273295777,3.32885906040268,7,331.688690714955,0,0,29.7839865771812,223.489932885906,0.000128655050272507,0.616778523489932,72.1000000000002,24